User: anonymous   Login
Location: *
(2.5500°S, 65.9667°W)
Time: 07:42:41
(UTC+00:00)
Language:

H-2A R/B - Orbit

View from above orbital plane
View from above orbital plane
View from above satellite
View from above satellite

Ground track
Ground track

The orbit data is extracted from the following two-line orbital elements,

1 28932U 06002B   22023.88215377  .00001018  00000-0  97591-4 0  9997
2 28932  98.3110  58.3918 0087150 205.1442 328.6283 14.92909071868467
Epoch (UTC): 23 January 2022 21:10:18
Eccentricity: 0.0087150
inclination: 98.3110°
perigee height: 528 km
apogee height: 649 km
right ascension of ascending node: 58.3918°
argument of perigee: 205.1442°
revolutions per day: 14.92909071
mean anomaly at epoch: 328.6283°
orbit number at epoch: 86846

The dashed part of the orbit path shows where the satellite is in the earth's shadow,  

DLR